• In Hungary
  • List of Countries
  • For 7 days
  • Water Temperature
  • Satellite Maps
  • Weather Map
  • News
  • Weather Widgets
  • user-avatar
    Login

    Hourly Weather Baturino

    Today, 19 June, Tuesday

    Time Temperature Precipitation Wind Pressure Humidity
    00:00 +14°C° 0 mm 1 mps 692 mmHg 55%
    01:00 +12°C° 0 mm 0 mps 692 mmHg 57%
    02:00 +13°C° 0 mm 1 mps 692 mmHg 59%
    03:00 +12°C° 0 mm 1 mps 692 mmHg 60%
    04:00 +12°C° 0 mm 1 mps 692 mmHg 62%
    05:00 +14°C° 0 mm 1 mps 692 mmHg 56%
    06:00 +18°C° 0 mm 1 mps 692 mmHg 51%
    07:00 +21°C° 0 mm 1 mps 693 mmHg 45%
    08:00 +22°C° 0 mm 1 mps 693 mmHg 41%
    09:00 +24°C° 0 mm 2 mps 693 mmHg 37%
    10:00 +26°C° 0 mm 2 mps 693 mmHg 33%
    11:00 +27°C° 0 mm 2 mps 692 mmHg 32%
    12:00 +28°C° 0 mm 2 mps 692 mmHg 30%
    13:00 +29°C° 0 mm 2 mps 692 mmHg 26%
    14:00 +29°C° 0 mm 2 mps 691 mmHg 26%
    15:00 +30°C° 0 mm 2 mps 691 mmHg 25%
    16:00 +30°C° 0 mm 2 mps 690 mmHg 24%
    17:00 +28°C° 0 mm 2 mps 690 mmHg 29%
    18:00 +27°C° 0 mm 2 mps 690 mmHg 33%
    19:00 +25°C° 0 mm 2 mps 689 mmHg 40%
    20:00 +23°C° 0 mm 2 mps 689 mmHg 42%
    21:00 +20°C° 0 mm 2 mps 689 mmHg 44%
    22:00 +19°C° 0 mm 2 mps 689 mmHg 45%
    23:00 +18°C° 0 mm 2 mps 689 mmHg 47%

    Tomorrow, 20 June, Wednesday

    Time Temperature Precipitation Wind Pressure Humidity
    00:00 +17°C° 0 mm 2 mps 689 mmHg 49%
    01:00 +16°C° 0 mm 1 mps 689 mmHg 52%
    02:00 +16°C° 0 mm 2 mps 688 mmHg 53%
    03:00 +15°C° 0 mm 2 mps 688 mmHg 54%
    04:00 +15°C° 0 mm 2 mps 688 mmHg 55%
    05:00 +17°C° 0 mm 2 mps 688 mmHg 51%
    06:00 +20°C° 0 mm 1 mps 688 mmHg 47%
    07:00 +22°C° 0 mm 1 mps 688 mmHg 42%
    08:00 +24°C° 0 mm 2 mps 688 mmHg 38%
    09:00 +26°C° 0 mm 2 mps 688 mmHg 33%
    10:00 +28°C° 0 mm 2 mps 688 mmHg 28%
    11:00 +29°C° 0 mm 2 mps 688 mmHg 26%
    12:00 +30°C° 0 mm 2 mps 688 mmHg 24%
    13:00 +31°C° 0 mm 2 mps 688 mmHg 22%
    14:00 +32°C° 0 mm 2 mps 687 mmHg 23%
    15:00 +32°C° 0 mm 2 mps 687 mmHg 23%
    16:00 +32°C° 0 mm 2 mps 687 mmHg 23%
    17:00 +30°C° 0 mm 2 mps 687 mmHg 28%
    18:00 +29°C° 0 mm 2 mps 686 mmHg 33%
    19:00 +27°C° 0 mm 1 mps 686 mmHg 38%
    20:00 +25°C° 0 mm 1 mps 686 mmHg 40%
    21:00 +24°C° 0 mm 2 mps 686 mmHg 42%
    22:00 +21°C° 0 mm 2 mps 686 mmHg 44%
    23:00 +20°C° 0 mm 2 mps 686 mmHg 47%

    Day after tomorrow, 21 June, Thursday

    Time Temperature Precipitation Wind Pressure Humidity
    00:00 +19°C° 0 mm 2 mps 686 mmHg 50%
    01:00 +19°C° 0 mm 2 mps 686 mmHg 53%
    02:00 +18°C° 0 mm 2 mps 686 mmHg 56%
    03:00 +18°C° 0 mm 2 mps 686 mmHg 59%
    04:00 +18°C° 0 mm 2 mps 686 mmHg 62%
    05:00 +19°C° 0 mm 2 mps 687 mmHg 61%
    06:00 +20°C° 0 mm 3 mps 687 mmHg 61%
    07:00 +21°C° 0 mm 3 mps 687 mmHg 60%
    08:00 +21°C° 0.2 mm 3 mps 687 mmHg 61%
    09:00 +21°C° 0.2 mm 3 mps 688 mmHg 63%
    10:00 +21°C° 0.2 mm 3 mps 688 mmHg 65%
    11:00 +21°C° 0.5 mm 2 mps 688 mmHg 66%
    12:00 +21°C° 0.5 mm 2 mps 688 mmHg 67%
    13:00 +21°C° 0.5 mm 2 mps 688 mmHg 69%
    14:00 +23°C° 0.1 mm 2 mps 688 mmHg 65%
    15:00 +23°C° 0.1 mm 2 mps 688 mmHg 61%
    16:00 +24°C° 0.1 mm 3 mps 688 mmHg 56%
    17:00 +24°C° 0.1 mm 2 mps 688 mmHg 61%
    18:00 +23°C° 0.1 mm 2 mps 688 mmHg 66%
    19:00 +22°C° 0.1 mm 1 mps 688 mmHg 70%
    20:00 +21°C° 0 mm 1 mps 688 mmHg 75%
    21:00 +19°C° 0 mm 1 mps 688 mmHg 80%
    22:00 +18°C° 0 mm 1 mps 688 mmHg 85%
    23:00 +15°C° 0 mm 0 mps 688 mmHg 86%

    22 June, Friday

    Time Temperature Precipitation Wind Pressure Humidity
    00:00 +15°C° 0 mm 0 mps 688 mmHg 86%
    01:00 +14°C° 0 mm 0 mps 688 mmHg 87%
    02:00 +15°C° 0 mm 1 mps 688 mmHg 88%
    03:00 +15°C° 0 mm 1 mps 688 mmHg 88%
    04:00 +15°C° 0 mm 1 mps 688 mmHg 88%
    05:00 +18°C° 0 mm 1 mps 688 mmHg 80%
    06:00 +20°C° 0 mm 1 mps 689 mmHg 72%
    07:00 +22°C° 0 mm 1 mps 690 mmHg 64%
    08:00 +23°C° 0 mm 1 mps 690 mmHg 58%
    09:00 +25°C° 0 mm 2 mps 690 mmHg 52%
    10:00 +27°C° 0 mm 3 mps 690 mmHg 46%
    11:00 +28°C° 0 mm 3 mps 689 mmHg 43%
    12:00 +29°C° 0 mm 3 mps 689 mmHg 39%
    13:00 +30°C° 0 mm 4 mps 689 mmHg 36%
    14:00 +29°C° 0 mm 4 mps 688 mmHg 37%
    15:00 +29°C° 0 mm 5 mps 688 mmHg 37%
    16:00 +29°C° 0 mm 5 mps 688 mmHg 38%
    17:00 +27°C° 0 mm 5 mps 688 mmHg 44%
    18:00 +26°C° 0 mm 5 mps 687 mmHg 49%
    19:00 +23°C° 0 mm 5 mps 687 mmHg 55%
    20:00 +21°C° 0.5 mm 5 mps 687 mmHg 63%
    21:00 +19°C° 0.5 mm 4 mps 688 mmHg 70%
    22:00 +18°C° 0.5 mm 3 mps 688 mmHg 78%
    23:00 +17°C° 0.2 mm 3 mps 688 mmHg 81%

    23 June, Saturday

    Time Temperature Precipitation Wind Pressure Humidity
    00:00 +17°C° 0.2 mm 3 mps 688 mmHg 83%
    01:00 +16°C° 0.2 mm 3 mps 688 mmHg 86%
    02:00 +16°C° 0.2 mm 3 mps 688 mmHg 86%
    03:00 +16°C° 0.2 mm 3 mps 688 mmHg 87%
    04:00 +16°C° 0.2 mm 3 mps 688 mmHg 87%
    05:00 +16°C° 0.2 mm 3 mps 688 mmHg 86%
    06:00 +16°C° 0.2 mm 3 mps 688 mmHg 86%
    07:00 +16°C° 0.2 mm 3 mps 689 mmHg 86%
    08:00 +17°C° 0 mm 3 mps 689 mmHg 77%
    09:00 +19°C° 0 mm 3 mps 689 mmHg 69%
    10:00 +20°C° 0 mm 3 mps 689 mmHg 60%
    11:00 +21°C° 0 mm 4 mps 689 mmHg 55%
    12:00 +23°C° 0 mm 4 mps 689 mmHg 50%
    13:00 +25°C° 0 mm 4 mps 689 mmHg 45%
    14:00 +25°C° 0 mm 4 mps 689 mmHg 44%
    15:00 +25°C° 0 mm 4 mps 689 mmHg 43%
    16:00 +25°C° 0 mm 4 mps 689 mmHg 43%
    17:00 +24°C° 0 mm 3 mps 689 mmHg 45%
    18:00 +24°C° 0 mm 3 mps 689 mmHg 48%
    19:00 +22°C° 0 mm 3 mps 688 mmHg 51%
    20:00 +20°C° 0 mm 2 mps 688 mmHg 55%
    21:00 +18°C° 0 mm 2 mps 688 mmHg 59%
    22:00 +16°C° 0 mm 2 mps 688 mmHg 63%
    23:00 +16°C° 0 mm 2 mps 688 mmHg 66%

    24 June, Sunday

    Time Temperature Precipitation Wind Pressure Humidity
    00:00 +15°C° 0 mm 1 mps 688 mmHg 68%
    01:00 +14°C° 0 mm 1 mps 688 mmHg 71%
    02:00 +14°C° 0 mm 1 mps 688 mmHg 73%
    03:00 +14°C° 0 mm 1 mps 688 mmHg 75%
    04:00 +13°C° 0 mm 1 mps 688 mmHg 77%
    05:00 +15°C° 0 mm 1 mps 689 mmHg 69%
    06:00 +17°C° 0 mm 2 mps 689 mmHg 62%
    07:00 +20°C° 0 mm 2 mps 690 mmHg 54%
    08:00 +21°C° 0 mm 2 mps 690 mmHg 48%
    09:00 +24°C° 0 mm 3 mps 690 mmHg 41%
    10:00 +26°C° 0 mm 4 mps 690 mmHg 35%
    11:00 +26°C° 0 mm 3 mps 689 mmHg 34%
    12:00 +26°C° 0 mm 3 mps 689 mmHg 33%
    13:00 +26°C° 0 mm 3 mps 689 mmHg 33%
    14:00 +26°C° 0 mm 3 mps 689 mmHg 33%
    15:00 +26°C° 0 mm 2 mps 689 mmHg 33%
    16:00 +26°C° 0 mm 2 mps 689 mmHg 33%
    17:00 +25°C° 0 mm 1 mps 689 mmHg 38%
    18:00 +24°C° 0 mm 1 mps 689 mmHg 42%
    19:00 +23°C° 0 mm 1 mps 688 mmHg 47%
    20:00 +21°C° 0 mm 1 mps 688 mmHg 50%
    21:00 +20°C° 0 mm 1 mps 688 mmHg 52%
    22:00 +18°C° 0 mm 1 mps 688 mmHg 55%
    23:00 +16°C° 0 mm 1 mps 688 mmHg 57%
    Show more